Location: Andershausen
(51.8462°N, 9.8595°E)
Time: 10:10:26
(UTC+00:00)

SPOT 1/Viking Rocket - Pass Details

Date: 18 November 2025
Orbit: 773 x 789 km, 98.2° (Epoch: 12 December)

Event Time Altitude Azimuth Distance (km) Brightness Sun altitude
Rises 16:39:59 0° 142° (SE) 3,262 6.5 -11.3°
Reaches altitude 10° 16:42:23 10° 136° (SE) 2,340 5.7 -11.6°
Maximum altitude 16:47:15 44° 66° (ENE) 1,087 3.8 -12.4°
Drops below altitude 10° 16:52:10 10° 356° (N) 2,363 5.9 -13.1°
Sets 16:54:35 0° 350° (N) 3,298 6.7 -13.4°
